Theta_e
338 338 336 334 335 335 337 337 338 343 346 341 335 335 340 338 326 329 348 356 354 358 359 356 356 356 354 354 354 353 354 354 353 352 352 353 353 353 353 352 352 351 352 353 354 354 352 353 353 354 354 355 356 356 356 357 356 356 356 356 356 357 357 358 356 354 353 355 355 355 356 355 354 355 357 358 358 359 358 357 357 357 358 358 358 358 358
339 339 337 337 336 334 334 334 335 339 345 346 344 345 346 342 339 346 354 356 357 357 355 353 353 352 353 354 352 353 354 353 353 354 355 355 355 355 354 353 353 351 351 353 354 353 353 353 353 353 354 355 356 356 356 356 355 355 355 356 357 357 358 357 356 354 353 352 352 353 354 353 352 353 355 357 358 358 358 357 357 357 357 358 358 358 358
337 338 337 336 336 335 334 335 335 337 342 347 348 348 349 348 350 355 355 355 358 355 351 352 351 350 352 352 351 353 354 352 352 353 354 354 354 353 352 353 353 350 350 352 353 353 353 353 353 354 355 356 356 356 356 355 354 354 354 355 356 357 357 357 357 356 356 354 353 353 353 353 353 352 353 354 355 356 357 357 357 357 357 358 358 357 357
334 336 338 336 334 335 337 338 337 337 340 346 349 350 351 351 352 354 353 354 357 355 351 351 351 350 351 351 351 352 351 351 352 353 353 352 352 351 351 352 352 351 350 352 353 354 354 353 354 354 356 356 356 356 357 356 354 354 354 355 356 357 356 356 356 357 357 357 356 355 354 354 354 352 351 352 354 355 357 358 357 357 357 357 358 357 357
330 334 336 335 330 330 338 341 338 336 338 342 348 351 350 350 352 354 354 353 355 354 351 352 353 350 349 350 350 350 351 350 350 351 351 351 350 349 350 350 350 349 350 351 352 352 352 353 353 353 354 356 356 356 356 356 354 354 355 356 357 357 357 356 356 356 357 357 357 357 356 355 354 353 353 353 354 355 355 356 356 357 357 357 357 357 356
330 333 333 333 330 329 337 343 340 337 337 338 344 348 346 346 350 353 354 354 353 351 351 352 352 349 349 349 347 347 349 349 348 349 349 349 349 348 348 348 347 348 349 350 350 349 349 351 352 350 351 353 354 353 353 354 353 354 355 357 357 358 358 357 356 356 356 356 356 357 357 356 356 355 355 355 355 354 354 354 355 356 356 356 356 355 355
331 332 329 332 334 333 336 339 338 337 337 336 339 342 342 342 346 349 352 353 351 350 350 349 349 347 346 345 345 345 345 345 346 346 346 345 346 346 346 346 345 346 347 349 349 348 346 347 348 349 350 351 351 351 352 352 353 354 355 356 357 358 357 356 356 356 355 355 355 355 355 355 356 356 356 355 354 355 354 353 354 354 354 354 354 353 353
328 330 329 332 336 336 333 333 333 335 336 337 339 342 342 340 341 346 350 351 349 348 347 345 345 345 343 342 344 344 342 342 342 342 343 343 342 343 343 342 342 343 344 345 347 347 346 345 345 346 348 349 350 351 352 352 353 354 354 354 355 355 355 354 354 354 354 353 352 352 352 352 353 354 355 354 353 353 353 354 354 353 353 353 353 353 352
328 331 332 333 335 337 336 335 333 333 334 336 341 345 343 339 339 343 348 349 348 346 345 344 342 342 342 343 343 341 340 339 339 339 339 339 338 339 339 339 340 340 341 343 344 345 346 346 345 344 344 345 347 348 349 350 352 353 353 353 352 352 352 352 351 351 350 350 349 348 349 349 350 351 352 352 351 351 351 353 355 354 353 353 352 352 351
328 331 333 336 337 337 337 334 330 329 330 333 337 343 344 340 340 343 345 347 347 346 345 344 341 341 345 348 345 341 337 336 336 336 336 336 336 336 337 337 338 339 340 341 341 342 344 344 345 345 344 345 345 347 349 350 350 351 351 351 351 350 349 349 349 348 347 348 348 348 348 348 348 348 348 348 348 348 349 350 352 352 352 351 351 350 350
328 327 329 335 337 334 333 332 330 329 329 330 333 341 344 341 340 343 345 346 346 345 344 343 343 344 348 349 345 339 335 334 334 334 334 335 335 335 335 336 336 337 338 339 339 341 341 342 344 345 345 346 346 347 347 348 348 349 348 347 347 346 345 345 346 345 345 346 347 348 348 348 347 347 346 346 347 347 347 347 348 348 348 349 349 349 348
328 326 325 330 333 332 332 332 330 330 330 330 332 335 339 339 339 341 344 344 345 343 342 342 343 346 348 347 342 336 333 333 333 332 333 333 334 334 334 334 335 335 336 336 337 338 338 340 343 344 345 346 344 344 344 344 345 346 345 344 344 343 342 343 344 345 344 344 346 347 347 347 347 347 346 346 347 346 346 346 346 345 346 348 348 347 345
328 326 325 327 330 332 333 332 330 330 328 328 328 329 333 338 340 341 341 342 342 341 340 341 343 343 342 339 336 333 332 332 332 332 332 332 333 333 333 333 334 334 334 335 335 336 337 338 340 342 343 342 340 340 341 341 341 341 342 342 343 342 342 342 343 344 344 344 345 346 346 346 346 346 346 346 347 346 346 346 345 344 345 346 346 344 342
328 327 326 326 327 330 331 331 330 329 326 324 328 332 334 337 339 339 339 340 340 340 340 341 341 339 336 334 332 332 331 331 331 332 332 332 332 332 332 333 333 333 333 333 333 333 334 335 336 337 337 336 335 336 336 336 337 339 341 342 343 342 342 343 343 344 344 344 345 345 345 345 345 345 345 345 345 345 346 346 345 344 344 344 342 340 338
329 329 327 327 328 329 330 331 331 331 330 331 335 337 338 338 338 338 338 339 340 339 340 340 339 336 334 332 332 331 331 331 331 332 332 332 332 331 331 331 331 331 331 331 330 330 331 331 331 332 333 332 332 333 333 333 335 337 339 341 341 341 341 342 342 343 343 343 343 344 344 343 344 344 344 344 344 345 345 345 343 341 340 339 338 336 333
328 328 329 331 332 331 329 331 333 334 334 334 337 340 339 338 338 338 339 339 339 338 339 339 337 336 334 333 332 332 331 331 332 332 332 332 331 331 331 330 330 330 330 329 329 328 328 329 329 329 329 330 330 331 332 334 335 336 338 339 339 339 339 340 341 341 341 341 342 342 342 342 342 342 343 343 343 343 343 343 341 338 336 336 334 332 330
328 329 332 333 332 329 328 330 333 334 334 333 336 339 339 337 337 337 338 339 338 337 338 338 337 335 334 332 331 331 331 330 331 332 332 331 330 330 329 329 329 329 329 329 328 327 327 327 327 326 327 327 328 330 332 333 332 331 332 335 336 335 335 336 337 338 339 339 340 340 340 341 341 341 342 342 342 342 341 340 338 336 334 333 332 330 328
330 331 331 331 331 331 331 330 331 333 334 335 336 338 339 337 336 336 336 337 336 336 337 337 336 334 332 331 331 330 330 329 330 331 331 330 330 329 328 329 328 327 327 327 328 327 327 325 325 324 324 325 326 328 330 330 328 326 327 329 330 331 331 332 332 333 335 337 339 340 339 339 339 339 340 341 340 340 338 336 335 334 333 332 330 327 326
332 334 333 332 332 332 332 333 334 334 335 336 336 338 338 337 336 336 336 335 335 335 336 336 335 333 331 331 331 330 329 330 330 330 330 330 328 326 326 325 324 325 327 328 327 328 327 326 325 324 324 324 324 325 326 328 328 327 327 327 328 329 329 328 328 329 331 334 337 339 338 337 336 336 337 337 337 336 336 335 335 334 333 332 330 328 326
332 334 332 331 330 330 330 333 335 337 336 336 336 336 336 335 335 335 335 335 333 333 334 334 333 332 331 331 331 330 330 330 330 329 330 329 327 325 324 324 323 325 327 328 328 328 328 327 326 325 324 325 325 324 324 325 325 326 327 328 329 329 329 328 328 329 330 332 334 335 335 334 334 334 334 333 333 333 333 334 334 334 334 332 330 327 326
332 333 331 330 332 333 333 334 334 335 336 336 335 335 335 335 335 335 334 335 334 333 334 333 332 331 332 332 332 331 331 331 330 330 329 329 328 326 325 325 325 326 326 327 328 327 327 326 326 325 325 325 325 325 324 324 324 324 326 328 329 330 329 329 329 330 330 330 331 331 330 330 330 331 332 332 332 332 332 332 333 333 333 331 328 327 327
333 334 333 333 335 335 335 335 334 333 334 335 335 335 335 335 335 335 334 334 334 334 334 333 332 331 332 334 334 333 333 332 330 329 330 329 327 326 325 325 326 326 326 326 327 327 326 326 326 326 326 326 326 326 326 325 325 325 326 327 328 329 329 329 329 329 329 328 328 328 328 327 327 328 329 330 331 332 333 333 333 333 333 331 328 327 328
331 333 334 333 335 336 335 334 333 331 333 336 336 335 335 335 336 336 334 333 333 333 333 333 333 333 333 334 334 334 334 332 329 328 329 330 328 327 326 326 327 327 326 327 327 326 327 327 327 327 325 325 325 326 326 326 325 325 326 328 329 329 328 328 328 328 327 327 326 326 326 326 325 325 325 326 328 330 332 333 334 335 335 333 330 329 328
330 332 332 331 334 335 333 331 331 330 332 335 335 334 334 335 336 337 336 335 334 333 332 333 334 333 333 333 334 334 333 331 329 327 327 327 327 326 327 327 328 327 327 327 327 326 327 327 326 326 325 325 324 324 325 326 326 325 326 328 330 331 329 327 327 327 326 325 325 324 324 324 323 323 323 323 323 325 327 330 331 332 332 330 328 327 325
329 331 330 329 332 332 329 328 329 329 331 334 333 333 334 335 336 337 336 336 336 334 333 332 332 333 333 333 333 334 332 331 330 329 328 327 327 327 328 329 328 328 327 325 325 325 325 325 325 324 324 324 324 323 323 324 325 326 326 326 329 331 330 328 327 326 325 324 323 322 323 322 322 322 324 324 322 321 321 323 324 325 325 324 323 321 319
328 329 328 327 329 328 327 328 329 328 330 333 332 333 334 334 334 334 334 335 335 334 334 333 332 333 333 333 333 333 332 331 330 329 329 329 329 328 329 328 327 326 325 325 325 325 324 323 323 323 323 323 323 323 322 322 324 326 326 325 327 328 328 327 327 325 323 323 323 323 322 322 321 322 323 323 323 322 321 321 320 319 318 318 317 316 316
327 328 329 329 330 328 328 330 330 329 330 332 332 331 331 330 330 330 330 331 332 332 333 333 333 333 333 333 333 332 332 332 332 331 331 331 330 329 328 327 325 325 325 325 326 325 324 324 323 323 323 323 323 323 321 321 323 324 325 326 327 326 325 325 326 326 325 324 324 324 323 323 324 323 322 321 322 323 323 323 322 320 318 316 316 315 316
328 329 331 333 333 330 328 328 329 329 330 330 329 328 328 328 329 329 329 329 330 330 330 331 332 332 331 331 331 332 332 332 333 333 332 332 330 329 328 327 327 326 326 325 325 324 324 324 324 324 324 324 323 323 321 321 321 322 322 325 327 327 325 325 325 326 326 326 326 326 325 325 326 325 324 324 324 323 322 323 323 322 320 317 315 315 316
329 329 329 330 331 329 327 327 327 327 326 326 326 326 327 328 327 327 326 327 328 329 328 327 327 327 327 328 329 330 331 331 332 332 331 330 329 329 329 329 329 328 327 327 326 325 325 325 325 326 325 324 324 323 321 320 321 320 320 322 324 326 326 325 325 325 325 325 325 325 324 325 327 328 327 327 326 324 323 323 323 323 321 318 317 317 317
328 327 327 327 327 327 327 327 326 323 322 323 324 325 326 325 324 323 324 325 326 326 326 325 325 324 324 324 324 325 327 328 329 329 327 326 326 326 327 328 329 329 329 329 328 327 326 326 326 326 325 324 325 324 322 321 321 321 320 321 322 323 324 324 324 324 324 324 323 323 323 324 326 327 328 328 327 326 325 325 324 323 322 320 319 320 320
326 326 327 327 327 328 328 327 324 322 321 322 322 322 322 322 321 320 321 323 324 325 325 324 324 323 322 321 319 319 321 323 324 324 323 322 322 322 323 326 328 329 330 329 328 327 327 327 327 327 325 325 325 325 323 321 321 322 322 323 323 323 322 322 323 324 324 324 324 324 323 322 322 322 324 325 326 327 327 326 326 325 323 322 322 322 321
326 326 326 327 328 328 328 325 323 321 321 321 321 321 321 321 320 319 320 321 323 323 324 323 323 321 320 318 317 317 317 318 319 320 320 320 319 318 318 321 324 325 324 324 324 324 325 326 326 325 325 325 326 326 325 323 322 323 324 324 324 324 323 322 321 322 323 324 324 323 322 321 320 321 321 322 323 324 325 326 326 326 325 324 323 323 321
328 328 327 327 327 328 326 324 323 321 321 321 322 322 322 321 321 320 320 320 321 322 322 322 320 318 317 316 316 316 316 317 318 319 319 319 319 317 317 318 318 317 317 317 317 317 318 320 321 322 323 323 324 325 325 324 323 324 324 324 324 323 323 322 322 322 323 324 324 323 322 322 321 321 321 321 321 322 322 323 324 325 324 324 324 323 321
331 331 329 327 327 327 326 324 323 321 321 322 323 322 322 322 322 321 320 320 320 320 320 319 317 315 315 315 315 315 316 317 318 318 317 317 317 318 319 319 317 316 315 315 315 314 314 315 317 319 320 321 322 324 325 325 324 324 324 324 324 324 323 323 323 322 323 324 323 322 322 322 322 322 321 321 321 321 320 321 322 322 322 323 322 320 320
331 331 329 327 327 328 326 324 322 321 320 320 320 320 320 321 320 319 319 319 319 318 317 315 314 313 314 314 315 316 317 317 317 317 315 314 314 316 319 320 321 321 320 317 315 314 314 314 313 315 317 320 321 322 323 324 324 324 324 324 324 324 323 323 323 323 323 323 323 322 322 322 322 322 322 322 322 321 321 321 321 320 321 321 319 318 319
328 328 327 326 326 326 325 324 323 321 320 321 321 320 320 319 318 318 318 318 316 315 314 314 314 315 316 317 317 317 317 316 316 315 314 313 313 314 315 318 321 323 322 320 318 316 315 315 314 314 316 318 320 321 322 322 322 322 323 323 323 323 323 323 323 323 323 322 323 322 322 322 322 322 322 322 322 321 321 321 321 320 320 320 319 317 318
327 327 327 326 325 324 324 323 322 321 321 321 321 319 319 318 317 317 316 314 313 314 314 315 316 317 317 316 315 315 315 315 314 314 313 313 313 314 314 316 318 318 319 319 318 316 316 317 318 318 318 318 318 319 319 319 319 320 321 321 322 323 323 323 323 323 323 322 322 322 322 321 321 322 322 321 321 321 320 320 320 320 319 319 319 318 318
326 326 325 324 324 323 322 321 320 320 321 320 319 318 317 315 315 315 313 313 314 315 314 315 316 315 314 314 314 315 314 313 313 313 313 312 313 314 315 315 316 316 317 319 318 318 318 319 320 319 319 318 317 317 317 317 317 318 318 318 318 319 320 320 320 320 320 321 321 321 321 321 321 321 321 321 320 320 320 319 319 319 319 318 318 318 318
325 324 323 322 322 321 320 319 318 319 320 320 319 318 316 314 313 314 313 314 314 314 313 313 314 314 315 315 316 315 314 312 312 313 313 312 312 313 314 314 315 315 316 316 316 316 317 317 317 316 316 316 316 316 316 316 316 315 314 314 314 315 316 316 316 315 316 317 319 319 320 320 320 320 320 320 320 319 319 318 318 318 318 317 316 316 316
325 324 322 321 320 320 319 318 318 318 318 318 318 316 314 313 314 314 314 314 314 313 313 313 314 315 316 316 315 315 314 312 312 312 313 312 312 312 313 313 313 313 314 314 313 313 313 313 313 312 312 312 313 313 313 313 314 313 313 313 314 314 315 314 314 315 317 317 318 318 319 319 319 319 319 319 319 319 319 318 318 317 317 316 315 314 315
326 324 322 320 320 320 319 318 318 317 316 317 316 314 313 313 314 315 315 314 313 313 313 313 314 315 316 315 314 314 313 311 310 311 311 312 312 312 312 312 313 313 314 314 313 312 312 311 311 311 311 311 310 310 310 311 311 312 313 313 314 314 315 315 316 317 318 317 317 318 318 318 318 318 318 317 317 317 318 318 317 317 317 316 315 314 314
326 323 322 321 320 319 319 318 317 316 316 316 315 314 313 313 314 315 314 313 313 313 313 312 312 313 313 313 313 313 312 311 310 310 310 311 312 312 313 313 313 313 314 315 314 313 312 311 311 310 310 310 309 309 309 309 309 310 311 313 313 314 316 316 316 317 317 317 317 317 317 316 317 317 316 316 316 316 316 316 316 317 316 315 315 314 313
325 323 322 322 320 319 318 318 317 317 317 316 314 313 313 314 314 314 314 313 313 312 312 312 311 311 311 311 312 313 312 311 311 311 311 311 311 311 312 313 312 312 314 315 314 312 311 311 310 309 309 309 309 309 309 309 309 310 312 314 314 315 315 316 315 316 316 316 316 316 316 316 316 315 315 315 315 315 315 315 315 315 315 314 314 314 313
324 323 323 322 320 319 318 318 318 318 318 316 314 313 313 314 314 314 314 313 312 312 312 313 313 312 311 312 313 313 313 312 312 312 312 312 311 311 311 311 312 313 314 314 313 312 311 310 309 309 308 308 309 309 310 311 312 312 313 314 314 314 315 315 314 315 315 315 315 315 315 315 315 315 314 314 314 313 313 313 313 313 313 313 313 313 312
323 323 323 321 320 319 318 318 318 318 316 315 314 313 313 314 314 314 314 313 311 311 312 313 312 312 312 313 313 312 312 312 312 312 312 312 312 312 311 311 313 315 314 313 312 311 310 310 309 309 309 308 309 310 311 312 313 313 313 313 313 313 314 314 314 314 314 314 314 314 314 314 314 314 314 313 313 313 313 313 312 312 312 311 311 311 311
323 322 322 320 319 318 317 316 316 315 314 314 314 314 314 314 314 314 313 312 311 311 311 312 311 311 312 312 312 311 311 311 311 311 311 311 312 312 311 312 313 314 313 312 311 311 311 310 309 308 307 308 308 310 311 311 311 311 311 311 312 312 312 312 312 312 312 312 312 312 312 312 312 312 312 312 312 312 312 311 311 311 310 310 310 310 310
322 321 321 320 319 318 316 315 315 315 315 316 317 316 314 314 314 313 312 311 311 311 311 311 310 310 310 311 311 312 312 312 312 311 311 311 312 312 312 312 313 312 311 311 311 310 309 307 305 305 306 307 308 309 310 310 309 310 310 310 310 310 310 310 310 310 310 310 311 311 311 311 311 311 311 311 311 311 311 310 309 309 309 309 309 309 309
321 321 320 319 318 316 316 316 316 316 317 318 318 316 314 313 313 312 311 311 311 311 311 310 310 310 310 310 311 311 312 312 313 312 312 312 312 313 313 313 313 312 311 310 309 306 304 302 303 305 306 307 308 308 308 308 308 308 308 308 308 308 308 308 308 308 308 308 309 309 310 310 310 310 310 310 310 310 310 309 308 308 308 308 308 308 308
321 320 319 318 317 316 317 317 317 318 318 318 317 315 313 312 312 312 311 311 311 311 311 311 311 311 310 310 310 311 311 311 312 312 312 312 313 314 313 313 312 311 309 307 305 303 301 302 304 306 307 307 307 307 307 307 307 307 306 306 306 306 306 306 305 305 305 305 306 307 308 309 309 308 308 308 308 308 308 307 307 307 307 307 306 306 306
320 319 318 317 317 317 317 318 318 318 318 318 316 314 313 313 313 313 312 312 312 312 312 312 312 311 311 311 311 311 311 311 311 311 311 311 311 312 312 312 311 309 306 304 304 303 302 302 303 305 306 306 307 306 306 305 305 306 306 305 305 305 305 304 304 304 304 304 305 306 307 307 306 305 305 306 306 306 306 305 305 304 304 304 304 303 303
319 319 319 318 317 317 317 317 318 317 317 316 315 314 313 314 314 314 313 312 313 313 312 312 311 311 311 311 311 311 311 311 311 311 310 310 310 310 310 310 309 306 304 303 304 305 304 303 302 302 303 304 305 305 304 304 304 305 305 305 304 304 304 304 305 305 304 304 305 306 306 305 304 304 304 305 305 304 304 304 303 303 303 303 303 302 302
319 319 318 317 317 316 316 316 316 316 315 315 314 313 313 314 315 314 313 312 312 312 312 311 311 311 311 310 311 311 311 311 311 310 310 309 310 310 310 309 308 307 306 305 305 305 304 303 302 301 301 302 303 304 303 303 303 305 305 304 304 304 304 304 304 304 304 304 304 305 305 304 303 304 304 304 304 303 303 303 303 303 303 303 303 302 302
Wind_Speed
10 9 7 8 8 6 7 9 12 12 9 5 8 4 2 3 4 2 5 6 4 4 5 6 7 7 5 5 5 4 4 4 5 7 9 9 7 6 5 5 5 7 7 7 10 13 15 16 17 18 18 18 18 19 19 19 20 21 22 22 22 21 21 21 23 24 23 22 22 21 20 19 18 17 15 14 14 13 13 13 13 13 12 12 12 12 13
9 7 6 8 7 3 6 7 10 13 12 7 3 3 4 5 2 5 9 9 6 5 4 5 6 6 6 5 5 5 5 6 6 6 6 7 6 5 5 4 2 2 3 5 7 10 12 14 16 17 17 17 19 19 19 21 23 23 23 22 21 20 20 22 23 24 24 24 24 23 22 21 21 20 18 16 15 14 14 14 14 14 14 13 13 12 13
5 5 5 6 3 2 3 4 9 13 13 9 2 6 7 5 6 9 11 10 7 4 4 6 7 6 8 8 8 8 6 6 6 6 6 6 5 6 6 5 4 3 1 1 4 7 10 12 15 16 16 17 18 18 19 23 24 24 24 23 22 21 21 21 20 19 20 22 22 22 22 21 20 20 19 18 17 16 15 14 15 16 16 15 14 13 13
3 5 5 2 3 5 1 5 8 11 11 8 2 5 5 4 8 11 10 8 5 4 5 7 8 9 10 10 10 9 8 8 9 8 7 6 5 6 6 5 5 4 3 2 1 2 4 7 10 12 13 14 16 17 18 21 24 24 23 22 21 20 20 20 18 15 14 15 16 18 20 20 20 20 19 19 18 18 16 14 15 15 16 16 16 15 14
3 5 3 3 5 3 1 4 4 6 11 11 3 4 6 4 4 8 6 5 5 6 7 7 9 11 11 9 9 9 9 10 10 10 9 8 7 6 5 5 6 5 5 4 4 4 4 3 5 9 11 11 12 14 15 18 21 22 21 20 19 18 17 17 17 14 12 12 13 14 16 17 18 18 19 19 19 19 18 16 15 15 15 16 16 17 16
3 3 1 3 1 2 2 2 4 2 6 12 8 4 6 7 3 5 7 8 9 9 8 9 11 11 10 9 9 10 10 9 10 11 10 9 8 7 6 6 6 5 5 4 4 4 5 5 4 5 9 10 12 15 16 17 18 19 18 17 16 15 14 13 12 11 10 10 10 10 10 11 13 15 17 18 19 19 19 19 18 17 16 15 16 17 17
2 1 2 1 0 1 2 1 3 5 4 7 9 8 8 8 5 6 10 10 10 10 9 9 11 11 11 11 12 12 11 10 10 10 9 9 9 7 6 5 5 5 5 5 5 4 5 6 6 2 2 6 10 13 14 15 16 18 18 16 15 14 12 12 12 12 10 9 9 9 9 10 9 9 11 15 17 17 19 19 18 18 18 17 17 19 19
2 1 0 0 1 1 3 4 1 3 1 3 6 6 6 7 7 3 8 10 10 10 9 9 8 9 10 11 12 12 11 11 10 9 8 8 8 7 6 6 6 6 5 6 5 6 8 9 9 7 2 3 6 8 10 12 14 15 16 17 17 14 12 13 15 15 13 11 11 10 10 12 12 10 8 9 11 12 14 15 15 15 15 13 14 15 16
1 1 0 0 1 1 2 3 1 2 2 2 2 3 3 2 4 3 4 9 9 9 9 7 5 4 7 9 9 10 11 10 9 9 9 9 9 9 8 8 7 6 5 5 5 3 5 7 10 12 10 7 6 6 8 10 12 13 13 15 15 13 12 12 12 11 12 12 12 11 11 12 15 14 11 10 10 10 12 12 10 11 10 8 9 10 11
1 1 1 1 1 1 2 3 2 2 3 4 4 2 3 1 3 3 2 6 8 9 8 6 2 1 5 8 7 8 9 9 9 10 10 11 11 11 10 9 9 8 7 6 7 6 3 3 6 10 9 9 9 8 8 9 12 13 13 13 14 13 11 9 5 4 6 8 10 11 11 13 15 16 15 14 14 13 12 11 10 8 5 5 8 10 9
2 2 2 2 2 1 2 4 3 3 3 5 7 4 1 2 4 3 3 5 6 6 5 5 2 3 5 6 5 6 8 8 8 9 10 11 12 12 12 11 10 10 8 8 10 11 10 8 7 8 8 9 9 7 6 7 8 9 7 7 8 9 8 7 6 6 7 8 7 6 7 10 13 14 14 13 11 9 8 10 12 9 6 6 7 6 6
3 3 2 1 1 0 2 2 1 2 3 5 5 2 2 3 3 2 0 3 4 4 4 5 5 5 5 5 4 5 7 8 9 9 9 10 11 12 12 12 13 13 12 13 13 13 11 9 8 9 9 9 8 8 7 6 5 4 3 3 3 5 5 5 7 8 9 8 6 5 7 8 8 9 10 8 7 6 7 9 10 9 8 7 5 2 2
3 3 2 1 1 1 1 1 3 2 2 4 3 2 3 4 2 1 2 3 4 4 4 5 7 7 7 7 6 6 7 8 9 10 10 11 13 14 13 13 14 16 17 17 18 17 14 11 9 9 10 11 11 11 10 9 6 4 3 4 5 6 6 5 4 4 4 3 3 4 7 7 5 5 6 6 6 6 6 6 7 8 8 6 4 4 3
1 1 1 1 0 1 2 4 2 0 2 2 0 2 2 2 2 3 4 5 5 6 8 9 9 8 8 8 7 7 8 8 8 9 10 12 13 13 13 14 14 16 18 20 21 22 21 20 18 17 17 16 14 14 13 11 8 8 9 10 9 9 8 7 6 5 3 2 1 3 4 4 3 4 5 5 4 5 5 5 6 7 8 7 7 7 5
1 1 2 1 1 2 3 4 1 2 1 1 3 3 2 3 5 5 5 6 7 9 11 11 10 10 9 8 8 8 8 8 8 8 9 11 12 13 14 15 16 17 19 19 21 23 26 26 26 26 26 24 19 17 18 15 12 14 16 17 17 16 15 15 14 11 9 7 6 5 4 2 1 3 4 3 3 4 5 6 7 7 8 9 9 10 11
1 2 2 0 1 2 2 2 1 0 2 1 4 4 3 4 5 6 6 7 9 11 12 12 11 10 9 8 8 8 7 7 8 8 9 10 12 13 14 15 16 18 19 19 20 24 27 28 28 29 30 28 24 21 20 19 20 20 20 20 21 19 19 20 19 16 13 10 8 8 7 4 1 2 2 3 4 4 5 6 8 9 9 9 11 13 15
1 1 2 1 2 2 1 1 1 1 1 1 3 5 5 5 5 6 7 9 9 10 12 12 10 8 8 8 8 7 7 7 7 8 8 9 11 12 13 14 15 16 18 18 19 22 25 27 27 27 27 27 25 21 20 21 23 24 23 23 22 22 22 22 21 18 17 15 14 13 12 9 7 5 5 5 6 6 5 6 9 11 10 10 11 13 14
1 1 2 1 1 2 2 1 1 1 1 2 3 6 7 6 6 7 8 9 8 7 9 10 9 7 7 8 8 7 7 7 7 7 8 8 9 11 12 13 15 16 16 17 18 19 21 23 24 24 24 24 23 20 19 20 21 22 22 22 22 21 21 21 20 19 19 18 18 18 18 17 15 13 10 9 9 8 8 9 10 11 11 9 10 11 12
2 2 2 1 1 2 2 2 3 3 4 3 4 7 8 8 8 9 9 8 7 6 7 9 8 7 7 7 6 5 6 7 7 8 8 8 9 10 11 13 16 17 16 16 16 17 17 19 21 21 21 21 20 18 18 19 19 19 19 18 18 17 17 18 19 19 18 18 18 18 19 19 19 17 15 13 11 10 10 10 10 9 9 8 8 9 11
1 2 3 2 2 1 1 1 3 5 6 6 5 7 8 8 8 8 7 7 6 6 7 8 8 7 6 6 5 5 5 6 7 7 7 7 8 10 12 15 17 17 16 15 15 15 16 17 18 20 20 19 18 17 17 16 17 18 17 16 15 14 15 16 17 17 16 16 17 18 18 18 18 17 15 13 12 11 10 10 9 8 7 6 7 9 11
2 2 3 4 4 3 1 1 3 4 6 9 9 8 9 9 9 8 7 6 7 8 8 8 8 7 6 5 5 5 4 5 7 7 7 7 8 10 12 14 16 16 15 14 14 15 16 16 17 19 19 18 17 17 17 16 16 17 18 18 17 15 15 15 15 15 15 15 16 17 17 17 16 15 13 12 10 9 8 7 7 7 6 6 7 9 9
3 4 7 7 4 4 3 3 4 4 5 9 11 10 10 10 9 9 8 8 8 8 8 8 9 8 5 4 5 5 4 4 6 7 7 7 8 9 10 12 13 14 14 14 14 14 15 15 16 17 18 17 17 16 16 15 16 17 18 19 18 16 15 14 14 14 15 15 15 16 16 16 16 16 14 13 11 10 8 6 4 4 4 4 5 6 6
1 4 9 6 3 5 5 5 5 4 3 7 10 9 9 9 8 9 10 10 9 8 7 7 8 7 6 5 5 6 5 5 6 7 8 8 8 8 8 9 11 12 13 13 13 13 13 13 14 16 16 16 16 15 14 14 14 16 17 17 16 15 14 14 13 14 14 14 14 15 15 15 15 15 15 14 13 12 11 9 7 6 5 6 6 5 4
1 4 8 5 3 6 7 5 5 4 2 5 8 7 7 8 8 9 9 9 9 8 7 7 8 8 7 7 6 7 7 6 6 8 9 9 9 9 8 9 9 10 10 11 11 12 12 12 13 14 15 16 15 14 13 12 12 13 15 15 13 12 12 13 12 12 13 13 13 13 13 12 13 13 13 14 14 13 12 11 10 10 9 9 8 6 4
2 5 6 5 4 7 7 5 5 4 2 5 8 7 7 8 9 10 10 8 9 10 9 8 8 8 8 9 9 9 8 7 7 8 9 9 9 9 8 8 8 8 9 9 10 10 11 12 12 13 14 14 14 14 13 12 11 11 12 13 12 10 10 11 11 11 12 11 11 11 10 10 10 9 9 10 12 12 12 12 12 11 11 10 9 7 6
4 8 9 7 7 8 8 6 5 4 4 7 9 8 9 10 11 11 10 9 10 11 11 11 10 9 9 10 10 10 10 9 9 9 8 8 8 7 7 7 7 7 7 7 8 8 9 10 11 12 12 12 12 12 12 12 11 11 11 11 10 10 9 9 10 10 11 10 9 9 9 8 8 7 7 8 10 10 11 11 11 11 10 9 8 7 7
6 10 11 9 7 6 5 4 6 7 7 9 11 11 11 12 13 12 11 10 10 10 10 10 11 10 10 10 10 11 11 11 10 9 9 8 7 6 6 6 6 6 6 5 5 5 6 7 8 9 10 10 10 11 11 10 10 10 10 9 8 8 9 8 8 8 8 8 7 7 7 7 6 6 7 7 7 7 7 8 8 9 9 9 8 8 8
8 7 5 5 7 8 6 6 9 10 9 10 12 13 13 13 13 13 12 10 10 10 9 9 10 11 10 9 10 10 10 10 10 9 8 8 7 6 6 5 4 4 4 4 4 4 5 6 6 7 8 8 9 9 9 9 9 9 9 8 6 6 7 7 7 6 5 6 6 6 6 6 5 5 6 6 5 5 6 6 7 8 9 9 8 8 8
7 3 2 3 7 10 10 10 10 10 9 10 12 13 14 13 11 10 9 9 10 10 9 10 11 12 11 10 10 10 10 9 9 8 8 8 7 7 6 4 3 3 3 3 3 4 4 5 5 5 6 7 7 7 7 8 8 9 9 7 6 5 5 6 6 5 5 6 7 7 7 6 5 4 4 4 4 5 5 5 6 6 8 9 8 7 7
5 3 4 7 10 12 12 11 10 10 10 10 11 11 13 13 11 8 8 9 9 9 9 10 12 12 12 11 12 11 11 10 9 9 9 9 9 8 7 5 4 3 3 4 4 4 3 3 4 4 3 4 5 5 5 5 7 8 8 8 6 5 4 4 4 5 5 7 7 6 6 5 3 3 3 3 4 4 4 5 6 6 7 8 8 6 6
6 5 7 9 11 13 12 10 9 9 10 9 10 10 11 12 11 9 7 7 8 8 9 10 10 10 11 12 13 12 12 11 9 9 9 9 8 8 8 7 5 4 5 5 5 5 4 4 4 4 2 2 3 3 3 3 4 5 6 6 6 5 4 3 2 3 4 5 5 4 3 3 3 2 2 2 3 3 4 5 5 5 6 7 7 6 7
9 8 8 8 9 10 10 9 9 10 9 9 10 11 10 10 12 10 8 8 8 9 10 11 11 11 12 13 12 11 10 8 7 6 6 6 6 7 7 7 7 7 7 7 7 7 6 6 6 5 4 3 2 2 2 2 2 3 4 5 4 4 4 3 2 1 1 1 1 1 2 3 3 2 1 1 2 3 3 4 4 5 5 6 6 7 9
12 9 8 8 8 9 10 9 9 11 10 9 10 10 10 11 12 11 10 10 11 11 11 11 13 15 16 15 13 11 10 8 6 5 4 4 4 3 3 4 6 6 6 7 7 7 6 6 5 5 6 5 4 2 1 0 1 2 3 3 3 3 3 3 3 1 0 1 1 1 1 2 2 3 2 1 1 1 2 3 3 4 4 5 5 6 9
12 10 12 13 12 12 12 10 9 9 9 7 8 9 10 11 11 12 13 13 12 11 13 15 17 18 17 15 14 12 9 7 5 4 4 3 2 2 2 3 3 4 4 4 5 5 5 5 5 5 6 6 6 5 3 1 0 1 1 2 2 1 1 2 2 1 0 0 1 1 2 2 2 2 2 2 1 1 2 2 3 3 4 4 5 6 8
7 7 10 14 13 13 14 13 11 10 9 7 7 8 9 10 12 14 15 14 14 15 17 19 19 18 16 14 13 10 8 6 6 6 5 4 3 1 2 3 3 2 2 2 2 2 2 3 4 4 5 6 6 6 5 4 2 2 1 1 1 1 1 1 1 1 1 1 1 2 2 2 3 3 3 3 2 2 2 2 3 3 3 4 5 6 6
6 7 8 9 10 12 14 14 13 13 12 10 9 9 9 11 13 15 15 16 17 20 22 21 19 16 14 12 11 9 8 9 8 7 6 6 4 3 2 1 2 2 1 0 1 1 1 1 1 1 3 4 5 5 5 5 4 4 3 2 2 1 1 1 1 1 2 2 2 3 3 4 5 4 4 4 4 3 3 3 3 4 4 4 5 6 6
8 9 10 9 10 12 13 14 15 16 14 12 12 13 13 13 14 15 17 17 19 21 22 20 16 14 12 12 11 11 11 11 9 8 7 6 5 3 2 1 1 1 1 0 1 1 2 1 1 1 0 1 2 3 4 4 4 4 4 3 3 2 2 2 2 2 2 2 2 3 3 4 5 5 5 5 5 5 5 5 5 5 4 4 5 6 6
8 9 11 12 13 13 13 15 17 17 15 13 12 15 18 19 17 17 18 19 20 21 20 17 14 14 14 13 12 12 11 11 10 8 7 7 5 3 2 2 2 1 1 1 1 1 1 1 1 1 0 1 2 3 3 4 4 3 3 4 4 4 4 4 3 3 3 3 3 3 3 3 4 4 4 4 4 4 5 5 6 6 6 6 6 6 7
7 8 10 12 12 12 12 13 14 15 17 16 13 12 16 20 20 18 19 20 20 19 18 16 14 13 13 11 10 10 10 11 9 7 7 6 4 3 2 3 3 3 3 3 3 2 2 1 1 0 0 1 1 2 2 3 3 3 4 4 4 5 5 6 6 7 7 6 6 5 5 4 4 5 5 4 4 4 5 5 6 6 6 7 7 7 7
8 9 10 11 11 11 12 12 13 14 18 21 20 18 19 20 20 20 20 21 19 17 16 15 14 11 10 9 9 8 9 9 8 6 5 5 3 2 2 3 3 4 4 4 3 2 1 0 1 1 2 2 3 3 4 5 5 6 6 6 7 7 7 8 8 8 8 8 7 7 6 5 5 5 4 4 4 4 3 4 5 5 6 8 9 9 10
9 11 12 12 12 12 12 13 13 13 15 19 22 23 24 24 24 23 22 21 20 18 16 14 12 11 10 9 8 8 9 8 7 6 5 3 1 2 2 1 2 4 4 3 2 1 1 2 3 3 4 5 6 6 7 7 8 8 8 9 9 8 8 8 8 7 7 7 7 7 6 5 5 4 4 4 4 4 3 3 3 4 5 7 8 9 11
11 12 13 12 11 12 13 13 14 14 14 16 19 22 25 26 26 25 24 22 21 18 15 13 12 11 11 10 9 9 9 9 7 6 4 3 2 2 1 2 2 3 4 3 1 1 3 4 5 5 6 6 6 7 7 8 8 8 7 7 7 7 6 6 6 6 6 6 6 5 4 4 4 3 3 4 4 4 3 2 3 3 4 6 7 8 10
13 14 13 12 12 13 14 15 15 15 13 14 18 23 25 26 26 25 24 22 21 19 16 14 13 12 12 12 11 9 9 8 6 5 4 3 3 3 1 1 1 3 3 2 2 3 5 5 5 5 5 6 6 6 6 6 6 5 5 4 4 4 4 5 5 5 5 6 6 5 5 5 4 4 4 4 3 3 2 2 2 2 3 5 6 7 8
15 15 13 13 15 15 15 15 15 14 14 15 20 25 26 26 26 26 25 23 22 20 17 16 14 14 13 12 10 8 8 7 6 5 4 4 3 3 2 3 3 3 3 2 3 4 5 5 5 5 5 5 6 6 6 5 4 3 2 2 2 3 3 4 4 4 5 5 6 6 6 6 6 6 5 4 3 2 1 1 1 1 2 4 5 5 7
16 15 15 17 17 16 16 17 17 18 19 21 24 26 28 28 27 26 24 23 22 21 19 17 15 14 13 11 9 8 8 7 7 6 5 3 2 2 2 2 2 2 2 3 4 5 5 4 4 5 6 6 6 6 5 3 2 2 1 1 1 1 2 2 2 2 2 3 4 4 4 5 5 5 5 5 4 3 3 3 3 3 3 5 5 5 5
14 15 16 18 18 19 22 24 23 23 24 22 19 20 25 28 27 24 23 22 21 20 19 17 15 14 13 11 10 9 9 8 8 7 5 4 2 2 2 2 2 2 2 3 4 4 5 5 6 6 7 6 6 4 3 2 2 2 2 2 2 2 1 1 1 1 0 1 1 2 2 2 3 3 4 4 4 4 5 5 5 5 6 7 7 7 8
15 14 15 16 17 19 22 23 22 21 21 18 14 15 22 27 26 23 21 20 19 18 17 15 14 13 12 11 10 9 8 7 7 7 5 4 3 3 3 2 2 2 2 2 3 4 5 6 6 6 5 4 3 3 2 2 2 2 2 2 2 2 2 2 2 2 1 1 1 1 1 1 1 2 2 3 4 4 4 4 5 5 6 7 7 7 7
16 15 15 17 19 20 21 21 19 17 16 16 17 20 25 27 25 22 20 19 18 17 16 15 13 12 12 11 10 9 8 6 5 5 4 5 4 4 4 3 3 2 2 2 3 4 5 4 3 2 2 2 2 2 2 2 2 2 1 1 1 1 1 1 2 2 2 3 3 3 3 3 3 3 4 4 4 4 3 3 3 3 3 4 4 4 5
15 15 16 19 19 19 19 18 15 14 15 18 21 24 27 26 23 21 21 20 18 16 15 13 13 13 12 11 10 9 8 7 5 4 4 5 6 5 5 4 3 2 1 0 1 2 3 2 1 0 0 1 2 2 2 2 2 1 0 0 0 0 0 1 2 2 3 4 4 5 4 4 4 4 3 3 2 1 1 1 1 1 2 3 3 4 4
14 15 16 16 17 19 19 17 15 15 17 19 22 27 29 25 19 17 18 18 16 14 13 12 12 12 12 11 10 9 9 8 6 5 6 7 7 6 5 5 4 3 2 2 1 2 3 3 2 0 0 0 1 1 2 2 2 1 1 1 1 1 1 1 1 3 4 4 3 3 2 2 1 1 2 2 2 2 3 3 3 3 4 4 4 4 5
14 14 14 14 17 22 23 21 21 23 24 23 26 30 29 22 16 16 19 19 16 13 12 12 11 12 12 12 11 10 10 9 8 8 8 8 7 6 6 6 5 4 4 3 1 0 2 2 1 1 1 1 1 1 1 1 1 1 1 1 1 1 1 1 1 3 4 4 3 2 1 1 2 3 3 2 2 3 3 4 4 4 4 4 4 5 6
11 12 14 14 16 17 17 17 20 25 26 26 28 29 25 17 14 15 17 19 18 15 13 12 12 13 13 13 12 11 11 11 10 10 10 9 7 7 7 6 6 6 5 4 3 1 0 1 1 1 0 1 2 2 1 1 1 1 1 2 1 1 1 0 0 1 3 3 3 3 2 2 2 2 2 1 2 2 2 3 3 3 3 4 4 5 5
Wind_Direction
122 115 95 81 59 9 339 3 2 346 331 254 209 214 196 199 246 224 129 132 119 59 25 17 24 24 28 36 44 66 97 112 114 121 126 129 129 127 130 147 173 187 194 196 195 195 196 196 197 199 200 199 199 201 202 204 206 208 211 213 212 212 212 213 219 223 223 222 223 223 223 224 225 224 222 226 230 234 236 238 239 241 243 246 248 247 248
122 113 91 89 76 352 317 353 358 348 333 292 219 121 145 182 163 125 128 120 93 63 32 29 33 34 43 51 58 66 81 95 94 97 104 105 104 105 103 98 105 167 197 207 207 206 204 201 201 201 199 198 199 200 201 205 209 211 212 211 210 210 213 218 223 225 225 226 227 227 227 227 229 228 227 228 231 234 238 239 239 242 247 250 249 248 250
114 121 97 82 74 273 285 355 358 352 335 295 233 109 123 143 130 132 131 115 89 65 57 57 52 52 56 57 59 59 63 79 88 86 72 64 64 66 64 58 55 59 50 239 226 223 218 213 208 204 201 198 198 198 201 206 210 211 211 210 209 211 215 220 223 224 225 227 228 229 229 230 231 232 233 234 236 239 241 242 245 250 253 253 253 252 253
141 141 116 92 243 226 175 30 6 352 330 292 223 105 98 130 151 148 130 110 97 83 81 77 66 62 55 47 50 55 56 65 76 80 73 58 49 49 44 38 45 49 37 17 325 278 254 236 223 215 209 203 201 202 203 205 209 210 210 208 207 209 214 218 219 220 222 225 227 229 231 231 232 235 238 239 241 245 245 245 250 253 255 256 257 259 258
139 122 128 216 236 225 90 37 20 354 326 309 311 72 49 39 148 153 128 107 101 88 82 77 69 66 57 43 43 51 55 61 65 67 70 66 61 58 47 32 35 37 33 29 25 19 358 302 253 231 219 205 201 205 207 207 209 209 207 205 204 206 211 216 217 215 215 220 225 229 233 235 236 238 240 241 244 247 249 250 251 253 255 256 258 261 261
116 90 305 249 257 18 39 94 132 157 295 301 311 2 19 9 32 117 107 100 96 86 77 75 72 69 63 54 47 48 50 57 61 60 58 58 58 55 47 39 32 19 7 2 3 7 5 360 338 240 218 208 204 208 211 211 210 209 205 200 199 201 201 205 210 211 211 215 222 230 235 237 239 240 241 244 247 250 253 255 256 257 258 257 259 264 266
104 57 316 286 124 13 8 70 144 165 231 281 300 320 346 357 12 89 103 100 96 89 81 78 77 74 67 59 53 48 45 45 54 58 53 49 50 47 44 45 40 23 357 338 323 304 304 322 338 348 172 191 199 202 205 206 206 207 203 197 196 196 189 186 191 195 197 205 219 236 244 243 240 239 244 251 254 255 256 256 258 261 262 262 264 268 269
121 157 295 255 236 298 333 335 351 131 160 278 286 298 331 350 345 30 100 105 99 91 86 82 82 81 73 61 50 45 43 42 47 54 54 50 48 44 42 41 37 29 12 355 333 295 284 289 288 281 260 171 179 181 184 192 197 200 197 195 194 187 178 185 196 201 204 207 214 228 242 248 242 230 231 249 259 267 267 262 257 259 261 263 267 271 273
142 156 119 27 334 313 308 307 306 137 159 222 265 293 318 334 309 321 88 109 112 107 97 80 68 77 75 63 46 38 41 45 47 50 51 51 52 50 48 49 45 39 35 30 17 318 280 277 271 262 251 236 226 204 184 185 190 191 190 190 187 179 180 192 202 213 220 220 219 224 235 248 247 239 233 237 248 266 276 272 261 254 255 259 262 265 274
130 140 125 112 156 213 183 176 175 200 207 185 177 241 311 258 225 244 151 134 135 127 102 59 15 120 74 58 42 32 35 41 46 50 52 53 55 53 49 50 48 45 51 59 61 68 97 175 232 247 242 222 211 198 179 181 191 194 193 190 184 180 184 188 185 210 239 241 234 231 237 248 253 250 245 241 244 252 260 268 271 265 251 251 260 263 268
164 187 194 169 188 206 144 155 180 244 238 191 178 183 244 246 235 228 167 152 137 115 79 38 31 142 98 69 53 38 38 40 42 50 56 57 58 57 52 50 48 47 52 61 66 69 75 101 154 193 202 186 172 155 146 164 181 184 181 177 180 181 182 190 207 227 245 254 251 248 253 255 254 256 255 252 251 249 248 260 272 277 266 252 254 259 257
173 196 213 208 220 153 114 157 250 291 235 207 209 208 130 165 224 285 22 126 99 70 54 50 66 93 100 94 79 58 55 54 50 51 56 56 56 58 57 56 56 55 52 53 56 55 52 70 113 144 155 149 130 116 119 131 144 166 171 165 194 203 188 185 209 223 232 243 259 280 277 261 251 254 255 246 231 226 232 241 249 256 258 251 236 221 215
177 200 199 213 266 95 88 320 324 345 212 214 239 346 73 126 159 348 41 85 78 63 71 81 80 81 92 102 97 79 69 61 53 53 57 60 63 64 62 60 61 61 59 56 56 56 53 58 80 106 115 104 91 94 101 100 97 117 160 176 194 204 191 172 180 205 228 255 285 280 265 255 238 233 237 228 218 223 228 215 203 213 231 229 182 155 155
151 197 189 218 236 97 27 338 331 157 233 253 354 51 74 104 96 84 92 98 96 96 97 99 100 99 100 100 94 82 72 64 56 50 51 58 62 61 59 58 62 66 65 61 59 60 62 64 67 76 81 74 66 71 72 64 69 92 109 126 136 136 130 124 116 110 103 90 121 203 228 235 226 227 235 233 226 223 211 189 178 186 192 183 161 148 134
109 169 183 222 196 96 24 339 270 192 284 354 99 105 99 90 89 98 107 111 115 116 110 106 108 109 105 99 93 82 74 71 64 52 48 55 59 58 58 59 63 69 69 65 61 63 66 68 68 70 71 66 58 56 55 52 63 84 95 104 109 109 111 111 110 112 116 123 132 134 125 118 205 235 229 214 208 198 176 166 159 152 150 150 144 131 116
243 194 162 185 355 31 11 331 263 357 357 93 129 123 102 98 105 110 113 118 122 121 117 114 113 111 105 101 97 87 77 75 72 62 56 58 62 63 64 63 64 68 70 69 66 67 69 70 70 70 72 70 63 57 60 69 77 81 85 92 95 96 98 101 103 105 106 106 103 97 95 97 129 208 184 160 158 156 151 151 148 140 135 136 131 123 115
270 341 58 34 353 356 344 301 313 8 19 133 140 125 113 114 119 117 120 125 123 120 120 119 114 108 103 100 97 90 82 76 73 70 64 62 65 68 67 67 68 70 72 72 70 69 70 71 71 70 71 74 73 69 73 79 79 78 80 84 85 84 84 86 89 92 92 91 88 85 88 92 95 99 110 119 122 118 113 122 131 130 127 126 123 118 112
152 38 38 27 17 30 42 51 43 67 93 116 129 123 118 118 122 123 127 128 123 120 123 120 112 109 109 102 96 94 92 85 80 78 74 65 66 69 68 69 73 75 75 73 71 68 67 69 71 70 70 72 76 80 83 82 77 76 80 83 82 82 83 83 82 81 81 82 83 83 84 86 88 92 99 109 113 109 102 105 114 117 118 117 115 111 107
167 138 116 90 42 26 26 64 90 91 83 84 109 118 120 122 124 125 128 128 124 119 119 118 114 113 113 107 99 95 95 92 88 85 79 69 68 72 75 80 82 79 74 71 69 68 65 66 69 71 70 71 74 78 82 83 82 83 88 90 89 88 86 83 79 76 75 76 81 85 85 85 87 91 96 102 106 105 105 106 107 108 111 113 113 112 112
129 103 107 96 69 44 344 39 94 103 102 98 97 108 118 121 118 118 122 125 126 123 119 120 121 117 112 110 109 103 97 96 94 89 85 80 78 81 86 89 87 82 75 70 67 64 63 64 67 70 70 69 71 73 75 79 81 83 87 92 95 95 92 87 83 82 82 83 86 89 90 89 90 91 95 98 102 103 103 104 103 103 108 118 122 123 123
106 98 145 155 135 118 110 79 90 106 116 118 115 114 118 119 116 114 113 111 116 124 127 128 126 120 113 111 110 108 106 103 100 97 93 88 85 87 91 92 91 88 84 79 74 68 64 63 66 70 70 69 69 71 73 74 75 77 81 86 89 93 94 91 88 87 89 93 96 97 96 95 92 90 90 90 92 94 93 95 100 102 109 125 134 135 134
159 164 170 172 150 130 146 146 121 119 127 128 127 127 127 125 123 121 116 108 109 116 126 135 134 126 120 125 123 115 108 105 107 109 109 104 98 95 94 93 92 93 91 87 84 79 73 68 67 68 69 69 67 67 67 67 68 72 76 79 82 86 90 92 93 94 96 100 102 102 101 99 96 92 89 85 83 83 81 79 85 93 96 109 127 136 134
162 155 161 169 138 124 144 146 130 137 146 128 125 128 130 128 126 125 123 120 117 113 111 122 129 126 123 130 126 111 100 102 116 125 124 119 113 105 97 93 91 91 91 91 91 88 82 76 72 69 68 67 65 63 62 61 64 68 72 74 75 78 82 88 95 101 104 106 107 105 104 104 102 98 93 87 82 79 77 76 78 84 87 94 106 115 113
67 148 154 161 126 123 140 143 131 141 152 117 115 117 120 124 124 122 121 119 118 116 106 99 105 112 114 115 110 102 95 96 114 129 132 130 127 120 108 98 90 87 85 85 87 87 83 77 74 71 69 66 62 60 60 60 63 67 71 73 74 75 81 88 96 104 109 112 112 109 107 107 106 103 100 94 88 83 81 80 84 91 99 106 114 119 113
139 134 135 137 112 111 121 120 115 127 132 114 113 112 114 120 120 118 116 112 112 115 112 101 96 98 101 101 98 98 97 95 107 121 127 128 128 124 115 106 97 91 86 80 77 76 72 68 67 66 65 62 58 57 58 60 66 72 75 77 79 79 83 91 99 108 113 114 113 113 112 112 111 110 109 107 103 99 96 93 93 97 103 111 117 120 115
119 118 115 107 99 110 122 121 123 143 144 122 117 114 113 113 108 105 107 107 109 113 114 112 108 103 99 99 98 98 101 105 111 116 116 118 120 118 113 110 104 98 92 84 77 72 66 63 60 56 54 52 50 50 52 56 62 71 79 83 84 82 82 88 99 111 117 117 114 114 114 113 113 115 120 123 123 121 116 111 108 107 108 111 112 110 106
134 132 124 115 118 143 162 144 136 148 145 126 120 117 114 111 106 100 98 95 96 99 103 109 113 108 101 100 100 100 102 104 105 104 103 104 107 107 109 113 110 102 95 89 81 74 67 63 58 50 44 42 39 39 43 48 54 62 71 78 83 84 84 86 92 103 112 115 114 116 116 112 111 119 129 132 133 134 135 131 126 123 122 122 120 115 110
158 153 136 136 154 165 158 122 124 134 132 123 122 121 119 115 110 108 105 100 97 94 89 94 105 105 101 101 102 102 103 100 97 94 91 89 93 100 106 109 107 102 97 88 79 75 68 64 62 51 39 33 31 30 32 37 42 48 54 61 71 79 83 88 92 95 100 105 110 118 120 115 115 128 139 145 146 144 145 145 140 138 140 141 138 131 125
166 157 62 83 118 125 120 117 123 127 124 123 126 126 125 120 112 108 110 108 105 102 93 92 97 98 96 96 96 95 96 93 86 83 83 84 89 93 93 94 98 104 100 82 67 64 63 60 62 57 40 28 26 25 24 28 33 33 35 41 48 57 69 84 92 96 102 107 110 111 109 106 111 129 145 158 165 163 162 161 156 154 157 158 154 147 141
160 126 104 110 118 125 129 132 134 135 135 135 133 129 128 125 119 115 117 115 112 110 107 104 102 98 95 94 92 91 92 90 83 80 83 86 88 88 85 87 97 103 94 80 67 60 55 47 47 44 24 2 5 13 15 19 25 27 28 32 37 43 54 76 90 100 113 121 119 112 106 101 103 121 141 159 173 179 182 182 179 178 176 175 173 166 162
136 117 125 133 138 141 140 138 139 142 143 142 137 134 132 130 127 127 127 122 120 123 122 118 113 107 104 104 101 98 97 95 93 91 89 86 84 82 78 79 83 83 79 75 70 66 66 63 57 49 19 315 315 339 358 10 19 24 26 28 31 37 45 62 89 107 122 129 127 118 109 101 100 114 139 168 183 187 187 190 193 194 195 196 195 189 183
124 118 129 139 144 142 140 140 144 147 149 150 147 145 144 141 140 142 145 142 139 139 136 132 129 126 124 122 118 114 113 112 111 109 106 101 93 81 72 71 76 76 72 67 63 59 60 62 59 53 45 30 350 319 314 335 1 13 19 22 24 28 32 41 57 95 159 152 121 90 82 78 76 76 98 150 182 190 191 194 198 200 205 211 210 205 204
130 132 149 158 152 148 151 157 157 156 161 163 157 153 154 152 148 148 150 149 149 150 148 146 146 144 142 140 138 136 135 133 128 123 121 122 119 106 92 88 86 79 72 66 60 51 44 41 38 32 30 31 31 24 352 270 309 345 358 5 9 13 20 30 39 42 259 249 308 2 27 37 36 34 37 49 147 191 199 203 204 208 214 221 222 222 225
158 165 172 171 166 161 163 167 166 162 162 160 151 151 156 156 152 152 154 154 156 160 160 157 155 154 151 148 146 146 145 141 137 130 126 129 152 187 184 161 133 106 87 77 67 52 36 25 17 10 7 10 15 20 27 42 59 10 343 337 338 338 341 3 17 21 20 304 313 320 328 339 351 358 355 347 335 297 249 228 219 216 215 219 228 233 231
157 153 162 168 169 164 160 162 165 165 161 157 156 160 163 159 156 157 159 161 164 165 164 161 159 158 155 152 151 152 151 148 148 144 138 132 134 156 191 197 192 165 104 88 95 80 48 27 14 9 4 1 2 8 13 13 11 14 7 343 331 314 303 320 346 340 337 339 316 307 312 317 317 322 321 313 305 295 275 252 238 230 220 216 226 232 229
138 133 148 161 165 162 160 161 164 167 166 163 159 160 162 162 161 161 164 166 166 164 162 160 158 157 155 153 152 151 151 150 149 147 141 134 124 110 111 178 211 213 197 183 208 230 265 317 3 18 14 3 357 359 4 4 3 7 13 21 28 18 344 336 325 313 311 314 309 306 309 307 305 305 306 301 295 290 281 265 249 239 229 217 216 223 226
154 149 151 155 157 161 165 168 168 168 166 162 159 161 163 165 166 166 166 164 161 160 159 158 156 154 152 150 147 147 149 151 149 146 143 139 133 128 128 134 173 208 217 206 256 284 292 283 233 183 75 7 339 332 336 342 345 350 356 2 8 5 350 337 328 321 316 314 312 310 308 303 298 296 296 294 289 285 282 276 264 251 238 222 213 215 218
150 149 155 159 160 161 166 173 173 169 162 158 161 168 171 171 169 167 165 162 159 159 158 155 151 148 145 143 144 145 148 150 149 147 149 148 143 147 160 162 168 189 182 127 111 103 95 127 157 156 50 334 309 299 299 304 309 318 326 332 338 343 343 340 336 332 330 332 332 326 316 308 304 302 298 290 282 278 277 272 263 251 236 222 214 211 207
142 143 151 157 158 155 156 164 171 171 167 163 160 163 170 171 168 163 160 158 158 158 156 151 147 145 143 143 144 146 149 152 151 150 155 157 155 165 185 187 183 173 152 134 124 118 113 118 129 31 325 291 279 274 274 277 281 287 294 303 312 319 322 322 320 318 319 322 325 322 320 318 315 310 306 299 288 279 271 263 255 244 232 222 217 216 210
152 150 151 153 154 152 152 158 168 176 178 173 168 167 171 170 163 157 156 155 157 159 157 152 149 149 149 152 153 152 156 159 159 158 161 162 163 184 200 195 187 177 161 148 139 128 119 31 316 318 299 288 291 289 283 279 279 280 283 288 294 301 304 304 307 311 313 315 317 317 319 319 318 315 314 310 303 293 279 261 247 235 227 222 221 221 219
156 153 153 153 155 158 160 162 165 170 176 177 175 174 174 171 163 158 156 156 158 160 160 158 157 158 159 161 162 163 168 172 171 170 171 171 184 214 206 169 166 182 186 180 167 137 4 331 325 319 309 302 302 301 297 294 292 290 290 291 294 296 298 298 299 301 301 302 305 307 310 312 313 314 317 318 316 315 308 274 243 229 225 221 217 213 211
156 154 154 156 159 160 159 159 159 160 167 175 176 174 172 170 166 162 159 158 159 161 163 164 163 162 163 167 170 171 175 179 181 182 189 200 214 215 182 117 147 188 204 207 220 305 331 333 328 322 317 315 314 312 309 306 302 298 294 291 291 290 288 287 287 288 286 287 289 292 295 301 306 310 315 318 317 316 315 297 257 231 219 214 209 203 197
162 159 157 157 160 160 159 160 160 157 158 168 174 172 169 168 166 162 160 160 162 163 163 165 166 166 169 174 175 174 176 181 184 188 197 201 194 186 176 167 216 230 236 245 280 311 323 329 332 331 331 331 330 327 324 322 316 308 297 287 283 280 277 277 279 278 276 276 276 276 277 280 284 288 294 301 304 305 309 302 268 233 214 210 207 201 195
164 163 161 159 160 160 158 158 158 155 156 165 171 171 168 167 166 165 163 163 166 167 167 167 169 172 175 178 179 178 179 183 187 190 197 199 199 207 229 248 252 252 251 266 299 321 328 332 337 340 339 337 337 338 339 339 334 326 312 294 287 283 279 278 278 273 269 269 269 269 269 269 269 272 275 277 277 278 280 282 276 255 230 216 207 196 195
166 168 166 161 159 160 160 162 166 168 167 165 167 168 168 168 169 168 167 167 170 172 171 170 172 175 177 179 181 182 183 185 186 187 193 202 208 206 219 239 244 241 248 279 305 320 328 328 327 324 321 321 326 333 341 349 356 3 16 13 344 314 294 287 280 270 262 265 265 264 266 265 263 261 257 250 244 246 260 271 274 264 245 234 227 224 220
164 166 164 161 162 168 172 174 174 170 163 157 157 165 170 170 170 170 171 171 172 174 175 176 179 179 178 177 178 179 181 185 191 196 208 226 233 218 214 239 252 251 265 293 310 315 316 316 312 309 309 312 318 326 340 359 14 22 30 31 22 10 4 5 5 358 312 274 265 262 266 267 262 257 251 245 245 253 263 267 267 261 253 249 250 252 247
160 160 162 163 163 167 170 168 163 158 156 153 154 164 171 172 172 173 174 174 173 174 176 178 178 177 177 178 180 181 182 187 194 203 216 226 227 221 222 227 232 245 268 291 305 308 309 309 307 306 310 317 327 343 356 356 354 359 6 6 3 5 13 24 27 24 11 356 337 320 305 292 286 285 276 265 261 262 264 263 265 263 256 246 242 242 241
161 161 162 161 158 157 158 157 155 156 163 165 163 166 171 173 173 173 173 174 174 174 174 174 174 175 177 181 183 184 185 185 184 187 199 205 204 200 197 194 204 229 256 282 303 313 316 314 309 306 324 349 2 13 16 7 2 9 14 10 7 12 17 10 359 346 331 320 311 301 295 296 300 304 299 288 279 275 272 267 260 246 229 215 206 208 213
160 155 154 155 156 155 156 157 160 167 170 167 164 166 170 171 171 172 174 174 173 172 173 173 174 177 180 182 183 185 187 187 180 171 175 184 187 186 181 184 201 225 226 216 337 344 355 6 2 321 61 34 23 18 11 359 351 351 8 336 230 210 219 345 345 337 327 317 304 291 284 286 294 301 305 303 298 285 256 190 142 148 160 166 170 178 189
155 153 153 156 160 163 165 168 170 170 168 166 166 169 170 168 167 171 174 173 171 171 173 175 177 180 182 185 187 191 192 192 189 183 176 177 182 185 181 180 191 206 198 163 108 30 27 29 24 347 236 325 351 354 352 346 330 286 241 228 223 230 259 310 346 354 353 348 335 313 288 276 306 34 51 58 70 96 121 133 138 146 157 166 178 192 201
160 161 162 166 170 173 175 178 178 174 171 170 171 172 172 170 168 170 172 173 171 170 172 177 181 184 187 192 198 203 200 193 185 181 179 179 182 186 186 183 186 191 187 176 163 48 19 19 19 10 277 267 265 270 314 342 340 296 242 222 213 248 304 321 346 358 2 8 17 30 57 99 96 82 77 77 87 104 126 143 153 162 176 194 211 220 221
161 163 161 161 165 169 172 176 177 175 173 172 172 172 172 169 163 165 172 177 177 174 174 177 182 187 194 200 205 207 201 190 180 177 179 179 178 180 181 181 182 185 187 190 199 215 319 9 16 19 321 233 221 219 235 294 311 283 245 227 226 247 281 270 299 339 352 8 26 43 65 98 109 103 102 121 136 140 155 175 190 202 217 230 236 235 233